Location: Hartman Creek State Park
(44.3257°N, 89.2134°W)
Time: 17:49:22
(UTC-05:00)

Cosmos 2263 Rocket - Visible Passes

Search period start: 25 July 2017 00:00
Search period end: 04 August 2017 00:00
Orbit: 823 x 849 km, 71.0° (Epoch: 25 July)

Date Brightness Start Highest point End Pass type
(mag) Time Alt. Az. Time Alt. Az. Time Alt. Az.
25 Jul 4.8 00:33:57 10° N 00:36:41 13° NE 00:39:26 10° ENE visible
25 Jul 2.5 02:16:08 10° NNW 02:21:49 64° ENE 02:24:59 27° SE visible
25 Jul 3.5 04:01:11 10° NW 04:05:11 20° W 04:06:36 18° WSW visible
26 Jul 4.8 00:17:26 10° NNE 00:19:53 13° NE 00:22:19 10° ENE visible
26 Jul 2.6 01:59:25 10° NNW 02:05:05 60° ENE 02:07:40 31° SE visible
26 Jul 3.4 03:44:18 10° NW 03:48:31 22° W 03:49:18 21° WSW visible
27 Jul 4.8 00:00:58 10° NNE 00:03:03 12° NE 00:05:08 10° ENE visible
27 Jul 2.7 01:42:43 10° NNW 01:48:20 55° ENE 01:50:30 35° ESE visible
27 Jul 3.4 03:27:26 10° NW 03:31:51 23° WSW 03:32:08 23° WSW visible
27 Jul 4.8 23:44:35 10° NNE 23:46:13 11° NE 23:47:52 10° NE visible
28 Jul 2.8 01:26:01 10° NNW 01:31:35 51° ENE 01:33:26 37° ESE visible
28 Jul 3.3 03:10:35 10° NW 03:15:05 25° W 03:15:05 25° W visible
28 Jul 4.8 23:28:22 10° NNE 23:29:24 10° NE 23:30:26 10° NE visible
29 Jul 2.9 01:09:19 10° NNW 01:14:50 47° ENE 01:16:28 37° ESE visible
29 Jul 3.3 02:53:45 10° NW 02:58:07 27° W 02:58:07 27° W visible
30 Jul 3.0 00:52:38 10° NNW 00:58:06 44° ENE 00:59:34 37° E visible
30 Jul 3.2 02:36:56 10° NW 02:41:13 29° W 02:41:13 29° W visible
31 Jul 3.1 00:35:57 10° NNW 00:41:20 41° ENE 00:42:43 35° E visible
31 Jul 3.2 02:20:07 10° NW 02:24:23 31° W 02:24:23 31° W visible
01 Aug 3.2 00:19:15 10° NNW 00:24:35 38° NE 00:25:57 33° E visible
01 Aug 3.1 02:03:19 10° NW 02:07:36 33° W 02:07:36 33° W visible
02 Aug 3.3 00:02:35 10° N 00:07:49 36° NE 00:09:12 31° E visible
02 Aug 3.1 01:46:32 10° NW 01:50:52 36° W 01:50:52 36° W visible
02 Aug 3.4 23:45:54 10° N 23:51:03 33° NE 23:52:31 29° E visible
03 Aug 3.0 01:29:45 10° NW 01:34:11 39° W 01:34:11 39° W visible
03 Aug 3.4 23:29:14 10° N 23:34:17 31° NE 23:35:52 27° E visible
